Vertical_Velocity
1 0 -2 0 -2 -2 -1 -2 1 0 -2 0 1 1 -0 -3 1 -2 -2 1 -2 -1 -0 0 1 4 1 -0 0 -1 -2 -2 -1 4 3 0 -0 -8 -6 -1 -0 1 0 5 -0
-2 -2 -3 -3 -2 0 -0 -1 -1 1 -3 2 1 1 -1 -3 -2 -1 -0 2 -2 -0 -1 -3 -1 1 1 -2 -0 0 -2 4 2 3 1 -5 -4 1 0 -2 1 -3 -2 -1 5
2 1 0 2 -1 -2 0 -2 0 -2 -4 3 -1 2 -2 -1 -1 2 -0 1 -0 0 1 -1 -7 2 -1 -1 -0 -1 -2 3 -3 1 1 3 3 -6 -2 0 1 1 -0 -2 -4
-1 -0 -1 0 2 -0 -1 2 -2 -4 1 2 -3 4 -3 -2 -1 -0 1 1 1 -1 0 2 -0 -1 2 -2 -1 -3 1 1 -5 -3 0 -0 -3 -1 -1 -2 1 3 -1 -0 -0
1 2 2 0 -1 -0 -0 -4 1 0 3 -3 -2 3 -2 -2 -0 1 -1 0 -0 -1 1 2 -5 1 0 1 3 -3 2 -4 -1 -3 -2 -1 -1 -2 2 -3 0 -1 -2 -3 -0
1 1 2 2 -1 -3 -3 -3 -2 -2 3 -1 1 -1 -1 -4 -1 -1 2 -1 1 -2 1 3 -2 -3 0 -2 0 1 -2 1 -0 -0 -3 -1 1 -2 2 -0 1 -2 -1 -1 -1
0 1 3 3 3 2 -2 -3 1 -3 0 0 -0 -2 -6 5 -4 -6 2 3 -1 2 -2 -4 -3 1 -3 -1 -0 0 -4 0 0 1 -2 1 -1 -0 -2 0 -3 -2 2 -1 -0
1 -2 1 3 2 1 0 0 2 1 -1 1 1 -3 -8 6 -3 -2 1 1 -1 2 -3 1 2 -2 -1 -2 1 -1 -3 -2 -0 1 -2 1 -1 -4 -1 1 -4 -7 3 -1 -1
3 0 0 3 3 0 2 1 -3 -3 -3 -3 -0 -2 1 0 -9 5 -0 4 2 -2 0 1 -0 -0 -3 -2 -2 -0 -2 4 -2 -1 -0 1 2 -6 -2 -1 -3 -5 -2 3 -1
1 2 1 2 1 4 1 1 -1 -1 -3 2 -2 -6 -0 -2 1 4 5 -2 -2 -0 5 1 2 -1 -0 -0 -5 -0 -2 5 5 3 -0 -2 -1 2 1 0 2 -5 -2 -1 -1
1 1 2 2 2 4 2 -1 -1 -6 -7 -5 1 11 -5 3 -0 2 6 -6 1 -2 -3 6 -1 -7 -3 6 -2 5 0 -3 7 1 2 1 -3 5 3 2 -1 -5 -4 -1 0
0 0 1 2 3 4 -3 -4 -1 -0 -4 -4 2 1 -3 1 3 1 4 -2 -2 -8 3 5 -16 3 2 2 5 12 -0 -3 -5 2 3 1 -7 2 -4 -2 3 -5 -2 -0 1
-2 1 2 3 -2 -1 1 9 0 -2 2 -3 1 -6 7 -0 1 3 -1 2 2 1 0 -3 -2 2 3 -3 2 5 -3 -1 0 2 -4 1 -15 1 -0 -2 2 -5 3 -3 0
1 1 -1 2 -2 2 -6 8 6 -2 -5 -17 -7 -21 4 -9 -8 0 -0 9 -1 -6 1 7 4 -5 1 1 -1 -1 0 -1 0 4 -3 1 -9 -8 3 5 2 -2 1 -2 -1
1 -1 -0 6 9 -13 26 6 4 9 1 7 3 -5 11 -13 -2 -4 6 4 -4 -0 3 -11 6 5 3 -9 7 -6 0 3 1 1 3 -0 4 -7 -4 -2 -5 -4 -1 -1 -0
-3 0 5 -0 -3 21 9 3 3 2 -14 3 1 -5 2 1 6 6 -4 4 3 4 6 -7 6 -1 -2 -2 -1 5 1 3 3 2 1 0 0 -6 -5 2 0 -2 -2 -2 2
-6 2 3 4 6 3 8 4 -8 3 2 0 -1 -0 9 -7 -1 3 -3 -6 -10 -2 -3 6 4 -5 -0 2 -1 3 2 -1 -1 2 -7 4 7 -17 -4 -3 -0 -3 -2 -4 1
1 -1 6 16 1 9 4 11 -1 -4 -5 -1 0 6 -1 8 4 2 3 4 2 -2 -0 -7 -5 -0 -3 -4 -3 -2 3 -3 -3 -1 -3 -1 -4 -8 -2 -4 4 7 2 -2 -0
2 -9 2 7 7 1 2 8 -22 -3 5 -3 1 6 1 -1 3 6 0 4 3 -4 -10 -2 2 -1 1 1 6 -6 -0 2 2 2 5 -2 -2 -3 -2 -5 -1 0 -0 -1 3
-2 0 3 13 6 2 5 -5 -10 -2 -1 4 1 -1 -4 -3 4 2 -2 -8 -8 -5 9 -3 -2 0 2 8 2 0 1 2 2 -1 -1 -2 1 -4 1 4 -6 -7 -3 -5 1
9 -4 17 10 11 8 -13 -4 -5 3 5 -2 3 -0 -0 -11 3 -1 -0 0 5 1 3 10 6 -3 3 -5 -2 -1 -1 -0 2 1 -4 -1 -3 2 -1 2 2 -2 -1 -10 -1
7 4 11 -5 1 12 -5 -1 -2 -20 1 -3 1 2 -2 2 -2 3 -8 5 -1 -2 -15 6 7 -2 -0 3 3 4 5 4 -0 -2 1 2 -14 1 -2 1 2 2 -7 -5 2
2 3 12 3 -8 -2 -1 1 -1 -0 -3 -4 -3 -0 7 -5 5 3 3 1 2 2 -8 -4 -4 1 2 -0 0 -2 -2 3 4 2 -5 -2 -9 2 4 -1 -3 1 2 -1 -3
21 -3 2 2 9 -1 -7 -4 4 1 -1 -7 -9 4 6 1 2 1 -0 -2 0 2 5 4 5 -3 -12 -3 0 -2 -1 3 7 3 -4 -19 -5 -2 13 4 -1 -1 -6 -2 -1
-9 1 -7 -32 -9 4 5 3 -1 -4 2 1 3 0 -2 3 6 -0 -2 -1 -1 1 3 1 -4 3 6 2 -0 -1 -2 2 -1 -3 2 -10 -5 5 6 -1 1 -1 2 -2 -5
-26 -26 -6 0 -2 -1 -2 -10 -4 -1 -5 -6 -7 -3 4 -2 2 -8 -1 0 -0 -2 3 1 2 1 -2 5 2 -1 -2 -1 -3 -3 -4 3 -29 18 8 -1 -5 -2 -3 -0 -3
11 5 3 -3 4 -2 -18 -5 -2 10 3 5 12 2 8 1 1 5 -0 3 1 -1 -1 2 2 2 -5 3 3 3 -11 -4 2 2 9 -4 2 11 -3 -1 6 -3 -3 -2 1
Height
3144 3145 3145 3147 3148 3149 3150 3150 3151 3151 3150 3150 3152 3154 3154 3155 3157 3160 3162 3165 3164 3165 3166 3167 3168 3170 3171 3172 3172 3173 3175 3175 3176 3176 3175 3175 3176 3175 3175 3176 3176 3175 3174 3174 3174
3140 3141 3142 3143 3145 3145 3146 3147 3148 3149 3149 3149 3149 3151 3152 3153 3156 3159 3163 3163 3164 3165 3166 3167 3167 3169 3170 3170 3172 3172 3173 3174 3174 3174 3174 3172 3173 3174 3173 3173 3173 3171 3170 3171 3173
3134 3137 3139 3141 3142 3142 3142 3144 3145 3147 3148 3147 3147 3149 3150 3152 3155 3158 3160 3162 3164 3164 3166 3166 3166 3169 3169 3170 3171 3171 3172 3172 3171 3171 3172 3172 3171 3170 3170 3170 3170 3170 3169 3169 3168
3130 3133 3135 3137 3138 3139 3139 3140 3141 3143 3145 3144 3145 3147 3148 3151 3156 3155 3158 3160 3162 3164 3165 3166 3167 3168 3169 3170 3170 3170 3171 3170 3169 3168 3170 3169 3168 3168 3167 3167 3167 3168 3168 3168 3167
3123 3127 3130 3132 3134 3135 3136 3137 3139 3140 3141 3142 3142 3143 3145 3149 3152 3154 3156 3159 3161 3163 3164 3165 3165 3166 3168 3168 3168 3167 3168 3167 3167 3166 3166 3165 3166 3165 3164 3163 3164 3164 3164 3165 3164
3117 3120 3123 3127 3129 3131 3133 3134 3135 3137 3138 3138 3139 3140 3142 3147 3149 3151 3153 3156 3159 3161 3163 3163 3163 3165 3166 3166 3166 3166 3165 3165 3164 3164 3162 3162 3162 3160 3162 3162 3161 3161 3161 3160 3160
3110 3114 3117 3121 3124 3127 3128 3130 3132 3133 3134 3135 3135 3135 3137 3144 3145 3148 3151 3153 3156 3158 3160 3161 3162 3164 3164 3164 3163 3163 3162 3161 3161 3161 3160 3160 3159 3157 3159 3159 3158 3158 3158 3157 3157
3104 3108 3112 3116 3119 3122 3124 3126 3128 3129 3130 3131 3131 3132 3134 3139 3142 3145 3148 3150 3153 3156 3158 3159 3160 3161 3161 3162 3161 3160 3159 3158 3158 3159 3159 3159 3157 3156 3156 3156 3154 3155 3156 3155 3155
3097 3101 3105 3109 3114 3117 3120 3122 3124 3125 3126 3127 3129 3129 3132 3135 3138 3143 3144 3148 3150 3153 3155 3157 3158 3159 3160 3159 3159 3158 3157 3157 3157 3156 3157 3157 3154 3153 3153 3154 3151 3151 3154 3154 3154
3090 3094 3098 3103 3108 3113 3116 3118 3119 3121 3123 3124 3124 3129 3128 3131 3134 3138 3142 3143 3147 3150 3153 3154 3155 3156 3157 3157 3156 3157 3156 3156 3156 3156 3154 3153 3152 3150 3151 3151 3150 3147 3151 3152 3152
3082 3087 3092 3096 3102 3107 3111 3114 3118 3118 3118 3120 3121 3124 3123 3126 3129 3133 3137 3140 3143 3146 3149 3150 3151 3151 3153 3155 3155 3155 3154 3153 3154 3152 3152 3150 3148 3148 3147 3147 3147 3144 3146 3149 3150
3074 3079 3085 3089 3095 3100 3104 3108 3112 3114 3113 3114 3116 3119 3121 3123 3125 3128 3133 3136 3138 3141 3145 3148 3145 3149 3150 3150 3152 3152 3151 3151 3150 3149 3148 3146 3144 3143 3141 3141 3143 3140 3141 3145 3147
3065 3071 3077 3082 3087 3093 3101 3106 3110 3110 3110 3109 3110 3113 3119 3120 3121 3123 3128 3131 3134 3137 3140 3142 3143 3144 3146 3146 3149 3149 3147 3148 3147 3146 3145 3143 3137 3136 3135 3136 3138 3136 3137 3139 3143
3056 3063 3069 3075 3082 3088 3095 3102 3106 3108 3108 3102 3101 3103 3107 3113 3115 3119 3123 3129 3130 3132 3138 3139 3139 3140 3142 3143 3146 3145 3145 3144 3144 3145 3143 3141 3136 3132 3132 3132 3134 3132 3132 3135 3138
3047 3055 3061 3071 3075 3080 3096 3098 3102 3107 3108 3098 3096 3098 3102 3107 3114 3115 3120 3122 3125 3128 3134 3134 3135 3135 3137 3138 3142 3141 3142 3142 3141 3141 3141 3138 3139 3126 3126 3126 3127 3127 3128 3131 3135
3038 3048 3055 3059 3067 3082 3087 3092 3100 3107 3099 3093 3092 3093 3097 3103 3107 3111 3115 3119 3123 3124 3127 3129 3132 3132 3134 3135 3137 3138 3139 3139 3139 3140 3138 3129 3132 3121 3122 3122 3124 3125 3125 3127 3130
3028 3040 3046 3056 3067 3073 3080 3087 3097 3093 3091 3089 3089 3090 3095 3097 3103 3107 3110 3113 3116 3121 3123 3127 3127 3128 3131 3133 3135 3136 3136 3137 3140 3139 3132 3127 3127 3119 3119 3121 3122 3123 3122 3123 3126
3016 3029 3040 3051 3059 3067 3073 3082 3083 3079 3083 3083 3085 3089 3092 3094 3099 3102 3106 3109 3112 3116 3119 3123 3125 3124 3125 3127 3131 3133 3134 3133 3134 3133 3128 3125 3121 3117 3116 3117 3119 3121 3122 3122 3123
3006 3020 3031 3041 3051 3060 3067 3070 3067 3073 3076 3080 3083 3085 3087 3090 3094 3097 3100 3103 3106 3111 3117 3118 3120 3120 3120 3123 3128 3127 3127 3131 3131 3128 3127 3120 3117 3116 3114 3114 3115 3118 3120 3121 3122
2998 3013 3025 3036 3045 3051 3056 3056 3064 3069 3071 3076 3079 3081 3082 3086 3090 3092 3095 3096 3100 3106 3111 3114 3116 3116 3118 3120 3121 3121 3124 3127 3128 3127 3125 3115 3114 3113 3114 3113 3113 3115 3116 3119 3121
2991 3003 3019 3028 3038 3042 3038 3050 3059 3065 3069 3073 3076 3078 3080 3081 3086 3088 3092 3093 3093 3096 3105 3110 3112 3115 3115 3113 3113 3117 3118 3120 3122 3121 3119 3119 3112 3111 3112 3114 3113 3113 3114 3116 3117
2982 2998 3009 3018 3027 3030 3034 3043 3054 3061 3065 3069 3072 3075 3077 3080 3083 3086 3087 3089 3089 3092 3097 3103 3109 3109 3110 3110 3110 3112 3113 3115 3116 3116 3115 3113 3111 3110 3111 3112 3112 3112 3111 3113 3113
2977 2991 3003 3012 3013 3018 3032 3042 3049 3055 3060 3064 3068 3073 3075 3077 3082 3082 3085 3087 3089 3091 3094 3100 3104 3106 3106 3109 3108 3106 3108 3110 3112 3111 3109 3113 3110 3108 3109 3108 3108 3108 3109 3110 3110
2974 2982 2994 2998 3010 3015 3025 3034 3041 3049 3055 3059 3065 3070 3073 3075 3077 3077 3081 3083 3086 3088 3092 3096 3098 3098 3099 3101 3101 3103 3103 3105 3107 3106 3104 3104 3105 3107 3107 3105 3103 3102 3104 3104 3104
2965 2971 2973 2979 2996 3009 3021 3028 3035 3042 3050 3057 3061 3065 3070 3071 3073 3075 3078 3080 3082 3085 3088 3091 3092 3095 3096 3097 3099 3099 3100 3101 3101 3101 3101 3099 3101 3101 3101 3100 3098 3097 3097 3097 3097
2955 2961 2970 2977 2996 3007 3014 3019 3027 3037 3043 3048 3054 3062 3066 3068 3070 3070 3073 3076 3079 3082 3085 3088 3090 3091 3093 3096 3095 3095 3097 3098 3097 3096 3095 3095 3092 3093 3095 3094 3092 3091 3091 3091 3092
2955 2963 2974 2981 2990 3000 3001 3011 3021 3033 3039 3046 3052 3059 3062 3065 3067 3069 3071 3074 3076 3078 3081 3085 3088 3088 3088 3090 3091 3089 3088 3090 3090 3090 3088 3088 3086 3087 3088 3088 3088 3088 3086 3086 3085